sat.trackr.live / text

‹ back to catalog

STARLINK-36882

NORAD 67980 · 2026-038V

PAYLOAD ACTIVE UNKNOWN

§ Identity

Operator
Country
US
Launch date
2026-02-25
Launch site
AFWTR
Launch vehicle
Mass (kg)
RCS (m²)

Purposes: comms

External: N2YO · Heavens-Above · Gunter

§ Orbital elements

Epoch: 2026-05-24T23:27:46.392192Z

Period
93.90 min
Inclination
97.2867°
Eccentricity
0.0000625
Mean motion
15.33521392 rev/d
Perigee alt
464.9 km
Apogee alt
465.7 km
Semi-major
6,843.5 km
B*
1.5432e-3
RAAN
155.0583°
Arg perigee
60.7962°
Mean anomaly
299.3343°
Rev number
1,493

§ Raw data

STARLINK-368821 67980U 26038V   26144.97762028  .00050198  00000+0  15432-2 0  99962 67980  97.2867 155.0583 0000625  60.7962 299.3343 15.33521392 14935

JSON: /api/v1/satellites/67980 · /tle

For live sub-satellite position, see the globe view (requires WebGL).

§ Visibility from observer

Set your observer location to see the next 7 days of passes ≥ 10°. The values pass through the URL so the page stays shareable.

No JS? Fill the form by hand. The geolocation button needs JavaScript.